Regional Weather Roundup
Issued by NWS Charleston, WV

Home | Current Version | Previous Version | Text Only | Print | Product List | Glossary On
Versions: 1 2 3 4 5 6 7 8 9 10 11 12 13 14 15 16 17 18 19 20 21 22 23 24 25 26 27 28 29 30 31 32 33 34 35 36 37 38 39 40 41 42 43 44 45 46 47 48 49 50
000
ASUS41 KRLX 270810
RWRRLX
West Virginia Regional Weather Roundup
National Weather Service Charleston WV
400 AM EDT MON APR 27 2015

Note: "fair" indicates few or no clouds below 12,000 feet with no
significant weather and/or obstructions to visibility.

WVZ003-270900-
Northern Panhandle of West Virginia

CITY           SKY/WX    TMP DP  RH WIND       PRES   REMARKS
WHEELING       CLEAR     39  29  67 NW5       29.83F
$$

WVZ009-270900-
Northwest West Virginia

CITY           SKY/WX    TMP DP  RH WIND       PRES   REMARKS
PARKERSBURG    CLEAR     38  31  76 NW3       29.88S
$$

WVZ006-270900-
Western West Virginia

CITY           SKY/WX    TMP DP  RH WIND       PRES   REMARKS
HUNTINGTON     CLEAR     43  30  60 N6        29.87S
$$

WVZ015-270900-
West Central West Virginia

CITY           SKY/WX    TMP DP  RH WIND       PRES   REMARKS
CHARLESTON     CLEAR     44  30  57 W3        29.85S
$$

WVZ022-031-270900-
North Central West Virginia

CITY           SKY/WX    TMP DP  RH WIND       PRES   REMARKS
CLARKSBURG     CLEAR     39  30  70 CALM      29.83S
MORGANTOWN     CLEAR     38  28  67 CALM      29.83S
$$

WVZ025-035-042-045-270900-
Southern West Virginia

CITY           SKY/WX    TMP DP  RH WIND       PRES   REMARKS
BECKLEY        CLEAR     38  30  73 NW3       29.81R
LOGAN            N/A     43  30  61 CALM      29.81S
BLUEFIELD      PTCLDY    38  35  89 W7        29.81R
LEWISBURG      FOG       35  34  96 CALM      29.80R VSB 1
$$

WVZ047-270900-
Northern Mountains of West Virginia

CITY           SKY/WX    TMP DP  RH WIND       PRES   REMARKS
ELKINS         CLEAR     32  29  88 CALM      29.81S
$$

WVZ052-270900-
Eastern Panhandle of West Virginia

CITY           SKY/WX    TMP DP  RH WIND       PRES   REMARKS
MARTINSBURG    MOCLDY    44  29  55 CALM      29.77R
PETERSBURG     CLEAR     35  31  83 CALM      29.81S
$$



USA.gov is the U.S. government's official web portal to all federal, state and local government web resources and services.